Overview Statistics Trail Chart Weather Telemetry Raw packets
 

This is the latest recevied weather packets stored in our database for station/object 4S6DRJ-13. If no packets are shown the sender has not sent any weather packets the latest 10 day(s).

<< 207 208 209 210 211 212 213 >>
Time Temp. Humidity Pressure Rain* Wind** Luminosity Snow
1788158958 31.67° C 69% 1008.7 hPa 0 mm 1.79 m/s, 250° 586 W/m² -
1788158897 31.11° C 68% 1008.6 hPa 0 mm 2.68 m/s, 210° 441 W/m² -
1788158836 31.11° C 68% 1008.7 hPa 0 mm 0.89 m/s, 233° 492 W/m² -
1788158775 31.11° C 67% 1008.9 hPa 0 mm 1.34 m/s, 87° 605 W/m² -
1788158714 31.67° C 66% 1008.8 hPa 0 mm 4.02 m/s, 317° 1140 W/m² -
1788158653 31.67° C 66% 1008.8 hPa 0 mm 4.47 m/s, 311° 1140 W/m² -
1788158592 31.67° C 65% 1008.9 hPa 0 mm 4.92 m/s, 310° 950 W/m² -
1788158531 32.22° C 66% 1009 hPa 0 mm 1.34 m/s, 299° 1145 W/m² -
1788158470 32.22° C 67% 1009 hPa 0 mm 2.24 m/s, 306° 1142 W/m² -
1788158409 32.22° C 67% 1008.8 hPa 0 mm 0.89 m/s, 118° 946 W/m² -
1788158348 32.22° C 67% 1008.7 hPa 0 mm 0.89 m/s, 107° 1140 W/m² -
1788158287 32.22° C 67% 1008.8 hPa 0 mm 0.45 m/s, 270° 1142 W/m² -
1788158226 32.22° C 67% 1008.7 hPa 0 mm 0.45 m/s, 64° 510 W/m² -
1788158165 31.67° C 66% 1008.8 hPa 0 mm 1.34 m/s, 240° 1120 W/m² -
1788158104 31.67° C 66% 1008.9 hPa 0 mm 0 m/s 1138 W/m² -
1788158044 31.67° C 66% 1008.8 hPa 0 mm 0 m/s 638 W/m² -
1788157996 31.67° C 66% 1008.8 hPa 0 mm 0.89 m/s, 139° 807 W/m² -
1788157921 31.67° C 66% 1008.9 hPa 0 mm 0.89 m/s, 220° 355 W/m² -
1788157859 31.67° C 68% 1009 hPa 0 mm 0.45 m/s, 290° 842 W/m² -
1788157799 31.67° C 68% 1009.1 hPa 0 mm 1.34 m/s, 324° 1118 W/m² -
1788157738 31.67° C 69% 1008.8 hPa 0 mm 0.45 m/s, 257° 1138 W/m² -
1788157676 31.67° C 68% 1009.1 hPa 0 mm 1.79 m/s, 10° 1141 W/m² -
1788157615 31.67° C 67% 1009.2 hPa 0 mm 1.34 m/s, 18° 1142 W/m² -
1788157555 31.11° C 67% 1009.1 hPa 0 mm 0.89 m/s, 215° 655 W/m² -
1788157494 31.11° C 69% 1009.3 hPa 0 mm 0.89 m/s, 91° 1127 W/m² -

* Rain latest hour (hover to see other rain measurements)
** Current wind speed in m/s (hover to see current wind gust speed)